FENGYUN 1C DEB, 31717

Orbit data source: Space-Track

FENGYUN 1C DEB, 31717 is space debris in SSO originally from a launch on Mon, 10 May 1999 UTC launched from the Taiyaun Space Center, China (TSC). Fengyun 1C debris stems from the Chinese weather satellite Fengyun-1C, which was intentionally destroyed by a Chinese anti-satellite missile in 2007. This event dramatically increased the amount of space debris, with thousands of trackable fragments posing hazards to satellites and human spaceflight. The Fengyun 1C debris cloud has become a focal point in discussions about space sustainability and the need for international regulations to prevent the creation of new debris.

Loading next visibility...
Identifier
31717, 1999-025CDQ
Orbit
SSO
Country
Flag of CNCN / PRC
Related business
Manufacturer
Unknown
Mission
Spacecraft
Bus & Motor
Unknown
Mass
Unknown
Launch date (UTC)
1999-05-10 (27 years ago)
Launch vehicle
Unknown
Launch site
Taiyaun Space Center, China (TSC)
Object type
Payload
Rocket body
Debris
Shape & HBR
Unknown shape, 0.1 m
Radar Cross Section
Small (<0.1 m²)

Expand to show TLE details & history
Last TLE update: 1 day ago

TLE from 1 day ago
0 FENGYUN 1C DEB
1 31717U 99025CDQ 26253.46542009  .00002827  00000-0  12377-2 0  9993
2 31717  96.9316 339.1418 0155201 281.3173  77.0604 14.18047633984982
Epoch: 2026-09-10T11:10Z
TLE epoch observation values (Epoch: 2026-09-10T11:10:12.295Z)
Latitude
-0.00004°
Longitude
-177.91216°
Altitude
811.523 km
Speed
7.46 km/s
True Right ascension
22h 36m 34s
True Declination
0° 00' 00"
Sunlit
Object was in full shadow at epoch
Visualization orbit readout
Latitude
Unknown
Longitude
Unknown
Altitude
Unknown
Speed
Unknown
Apparent Right ascension
Unknown
Apparent Declination
Unknown
Sunlit
N/A
Visualization observer readout
Local Sidereal Time
13:18:26
Azimuth
Unknown
Elevation
Unknown
Doppler factor
Unknown
Orbital elements
Apogee altitude
940.903 km
Perigee altitude
717.19 km
Semi-major axis
7,207.184 km
Eccentricity
0.01552
Inclination
96.9316°
RAAN
339.1418°
Arg. of periapsis
281.3173°
True anomaly
78.801°
Mean anomaly
77.0604°
Eccentric anomaly
77.92998°
Mean motion
3.54727 °/min
Orbital period
101.49 mins
BSTAR
0.0012377
Loading maneuver chart data...
Computing Atmospheric mass density...
Loading historical data...
Loading historical data...
Loading historical data...
Loading historical data...
Loading historical data...
Loading historical data...
Loading historical data...

Documentation

Showing up to 5 results
|